Location: Newark
(44.3867°N, 6.6531°E)
Time: 11:34:13
(UTC+00:00)

Envisat - Pass Details

Date: 31 January 2020
Orbit: 764 x 766 km, 98.1° (Epoch: 23 February)

Event Time Altitude Azimuth Distance (km) Brightness Sun altitude
Rises 17:04:35 0° 159° (SSE) 3,219 6.2 -4.8°
Reaches altitude 10° 17:06:53 10° 157° (SSE) 2,297 5.5 -5.2°
Maximum altitude 17:11:55 71° 74° (ENE) 810 3.0 -6.1°
Drops below altitude 10° 17:16:59 10° 351° (N) 2,313 5.4 -6.9°
Sets 17:19:19 0° 349° (N) 3,243 6.2 -7.3°
